Weather History for Mackall AAF, NC

Change the Weather History Date:

Thursday, January 10, 2013

  Actual Average Record
Temperature  
Mean Temperature 55 °F -  
Max Temperature 67 °F 54 °F 69 °F (2006)
Min Temperature 43 °F 32 °F 16 °F (2015)
Degree Days  
Heating Degree Days 10    
Growing Degree Days 5 (Base 50)    
Moisture  
Dew Point 45 °F    
Average Humidity 72    
Maximum Humidity 100    
Minimum Humidity 37    
Precipitation  
Precipitation 0.01 in - - ()
Sea Level Pressure  
Sea Level Pressure 30.46 in    
Wind  
Wind Speed 4 mph (NE)    
Max Wind Speed 12 mph    
Max Gust Speed 21 mph    
Visibility 9 miles    
Events Rain    
Averages and records for this station are not official NWS values.
T = Trace of Precipitation, MM = Missing Value Source: NWS Daily Summary

Daily Weather History Graph

Daily Weather History Graph

Search for Another Location

Airport:

Trip Planner

Search our weather history database for the weather conditions in past years. The results will help you decide how hot, cold, wet, or windy it might be!

Date:

Astronomy

Jan. 10, 2013 Rise Set
Actual Time 7:26 AM EST 5:25 PM EST
Civil Twilight 6:58 AM EST 5:52 PM EST
Nautical Twilight 6:27 AM EST 6:24 PM EST
Astronomical Twilight 5:56 AM EST 6:54 PM EST
Moon 6:04 AM EST (1/10) 4:30 PM EST (1/10)
Length of Visible Light 10h 54m
Length of Day
9h 58m
Waning Crescent, 2% of the Moon is Illuminated
Jan 10
Waning Crescent
Jan 11
New
Jan 18
First Quarter
Jan 26
Full
Feb 3
Last Quarter

Hourly Weather History & Observations

Time (EST) Temp. Windchill Dew Point Humidity Pressure Visibility Wind Dir Wind Speed Gust Speed Precip Events Conditions
12:55 AM 50.7 °F - 48.7 °F 93% 30.45 in 10.0 mi NNW 5.8 mph - N/A   Mostly Cloudy
1:55 AM 49.6 °F - 47.3 °F 92% 30.44 in 10.0 mi NNW 3.5 mph - N/A   Partly Cloudy
2:55 AM 48.4 °F - 46.6 °F 93% 30.44 in 10.0 mi NNW 1.2 mph - N/A   Partly Cloudy
3:55 AM 47.3 °F - 46.2 °F 96% 30.44 in 10.0 mi West 2.3 mph - N/A   Partly Cloudy
4:55 AM 46.2 °F - 45.3 °F 97% 30.44 in 9.0 mi Calm Calm - N/A   Clear
5:55 AM 45.1 °F - 44.4 °F 97% 30.46 in 6.0 mi NNW 2.3 mph - N/A   Clear
6:43 AM 44.6 °F - 42.8 °F 93% 30.47 in 2.5 mi NNW 2.3 mph - N/A   Clear
6:51 AM 44.6 °F - 44.6 °F 100% 30.48 in 3.0 mi North 2.3 mph - N/A   Clear
6:55 AM 44.2 °F 42.7 °F 43.5 °F 97% 30.48 in 4.0 mi NNW 3.5 mph - N/A   Clear
7:55 AM 43.3 °F - 43.2 °F 99% 30.51 in 9.0 mi NW 1.2 mph - N/A   Clear
8:55 AM 53.2 °F - 50.0 °F 89% 30.52 in 10.0 mi NNE 3.5 mph - N/A   Clear
9:55 AM 61.7 °F - 45.9 °F 56% 30.52 in 10.0 mi NE 11.5 mph 20.7 mph N/A   Clear
10:55 AM 63.7 °F - 42.3 °F 46% 30.51 in 10.0 mi ENE 9.2 mph - N/A   Clear
11:55 AM 65.3 °F - 42.1 °F 43% 30.48 in 10.0 mi ENE 5.8 mph - N/A   Clear
12:55 PM 66.4 °F - 39.0 °F 37% 30.45 in 10.0 mi East 6.9 mph - N/A   Clear
1:55 PM 67.5 °F - 40.6 °F 38% 30.44 in 10.0 mi East 8.1 mph - N/A   Clear
2:55 PM 67.5 °F - 41.0 °F 38% 30.44 in 10.0 mi NE 5.8 mph - N/A   Clear
3:55 PM 66.6 °F - 42.6 °F 42% 30.44 in 10.0 mi East 5.8 mph - N/A   Clear
4:55 PM 64.0 °F - 45.0 °F 50% 30.45 in 10.0 mi East 5.8 mph - N/A   Clear
5:55 PM 60.3 °F - 46.4 °F 60% 30.45 in 10.0 mi ENE 5.8 mph - N/A   Clear
6:55 PM 57.6 °F - 46.8 °F 67% 30.46 in 10.0 mi ENE 3.5 mph - N/A   Clear
7:55 PM 52.9 °F - 46.6 °F 79% 30.46 in 10.0 mi ENE 4.6 mph - N/A   Clear
8:55 PM 53.1 °F - 46.8 °F 79% 30.44 in 10.0 mi ENE 3.5 mph - N/A   Partly Cloudy
9:55 PM 55.8 °F - 46.2 °F 70% 30.43 in 10.0 mi ENE 5.8 mph - N/A   Overcast
10:55 PM 56.1 °F - 44.1 °F 64% 30.42 in 10.0 mi East 6.9 mph - N/A   Mostly Cloudy
11:39 PM 55.4 °F - 42.8 °F 63% 30.43 in 10.0 mi ESE 5.8 mph - N/A Rain Light Rain
11:55 PM 54.3 °F - 43.9 °F 68% 30.43 in 10.0 mi ESE 6.9 mph - N/A Rain Light Rain